Location: Marse
(42.1502°N, 110.9866°W)
Time: 02:59:19
(UTC+00:00)

BEESAT - Pass Details

Date: 05 July 2022
Orbit: 700 x 706 km, 98.6° (Epoch: 11 August)

Event Time Altitude Azimuth Distance (km) Brightness Sun altitude
Rises 05:00:50 0° 359° (N) 3,105 ? -16.6°
Reaches altitude 10° 05:03:33 10° 344° (NNW) 2,183 ? -16.9°
Maximum altitude 05:07:04 21° 296° (WNW) 1,573 ? -17.3°
Drops below altitude 10° 05:10:33 10° 249° (WSW) 2,174 ? -17.7°
Sets 05:13:17 0° 233° (SW) 3,089 ? -17.9°
